Year,Month,Day,Hour,Minute,Value (Times are PST for temperature in C)
2009,09,01,00,00,14.90
2009,09,01,00,01,14.90
2009,09,01,00,02,14.90
2009,09,01,00,03,14.90
2009,09,01,00,04,14.80
2009,09,01,00,05,14.80
2009,09,01,00,06,14.80
2009,09,01,00,07,14.80
2009,09,01,00,08,14.80
2009,09,01,00,09,14.80
2009,09,01,00,10,14.80
2009,09,01,00,11,14.80
2009,09,01,00,12,14.70
2009,09,01,00,13,14.70
2009,09,01,00,14,14.70
2009,09,01,00,15,14.70
2009,09,01,00,16,14.60
2009,09,01,00,17,14.60
2009,09,01,00,18,14.60
2009,09,01,00,19,14.60
2009,09,01,00,20,14.60
2009,09,01,00,21,14.50
2009,09,01,00,22,14.50
2009,09,01,00,23,14.50
2009,09,01,00,24,14.50
2009,09,01,00,25,14.50
2009,09,01,00,26,14.40
2009,09,01,00,27,14.40
2009,09,01,00,28,14.40
2009,09,01,00,29,14.40
2009,09,01,00,30,14.40
2009,09,01,00,31,14.40
2009,09,01,00,32,14.40
2009,09,01,00,33,14.30
2009,09,01,00,34,14.30
2009,09,01,00,35,14.30
2009,09,01,00,36,14.30
2009,09,01,00,37,14.30
2009,09,01,00,38,14.20
2009,09,01,00,39,14.20
2009,09,01,00,40,14.20
2009,09,01,00,41,14.20
2009,09,01,00,42,14.20
2009,09,01,00,43,14.20
2009,09,01,00,44,14.20
2009,09,01,00,45,14.20
2009,09,01,00,46,14.20
2009,09,01,00,47,14.20
2009,09,01,00,48,14.20
2009,09,01,00,49,14.20
2009,09,01,00,50,14.20
2009,09,01,00,51,14.20
2009,09,01,00,52,14.10
2009,09,01,00,53,14.10
2009,09,01,00,54,14.10
2009,09,01,00,55,14.10
2009,09,01,00,56,14.00
2009,09,01,00,57,14.00
2009,09,01,00,58,14.00
2009,09,01,00,59,14.00
2009,09,01,01,00,14.00
2009,09,01,01,01,14.00
2009,09,01,01,02,13.90
2009,09,01,01,03,13.90
2009,09,01,01,04,13.90
2009,09,01,01,05,13.90
2009,09,01,01,06,13.90
2009,09,01,01,07,13.90
2009,09,01,01,08,13.90
2009,09,01,01,09,13.80
2009,09,01,01,10,13.80
2009,09,01,01,11,13.80
2009,09,01,01,12,13.80
2009,09,01,01,13,13.80
2009,09,01,01,14,13.70
2009,09,01,01,15,13.70
2009,09,01,01,16,13.70
2009,09,01,01,17,13.70
2009,09,01,01,18,13.70
2009,09,01,01,19,13.70
2009,09,01,01,20,13.70
2009,09,01,01,21,13.70
2009,09,01,01,22,13.70
2009,09,01,01,23,13.70
2009,09,01,01,24,13.70
2009,09,01,01,25,13.70
2009,09,01,01,26,13.70
2009,09,01,01,27,13.70
2009,09,01,01,28,13.70
2009,09,01,01,29,13.70
2009,09,01,01,30,13.70
2009,09,01,01,31,13.70
2009,09,01,01,32,13.60
2009,09,01,01,33,13.60
2009,09,01,01,34,13.60
2009,09,01,01,35,13.60
2009,09,01,01,36,13.60
2009,09,01,01,37,13.60
2009,09,01,01,38,13.60
2009,09,01,01,39,13.60
2009,09,01,01,40,13.60
2009,09,01,01,41,13.60
2009,09,01,01,42,13.60
2009,09,01,01,43,13.60
2009,09,01,01,44,13.50
2009,09,01,01,45,13.50
2009,09,01,01,46,13.50
2009,09,01,01,47,13.50
2009,09,01,01,48,13.50
2009,09,01,01,49,13.50
2009,09,01,01,50,13.50
2009,09,01,01,51,13.40
2009,09,01,01,52,13.40
2009,09,01,01,53,13.40
2009,09,01,01,54,13.40
2009,09,01,01,55,13.40
2009,09,01,01,56,13.40
2009,09,01,01,57,13.40
2009,09,01,01,58,13.40
2009,09,01,01,59,13.40
2009,09,01,02,00,13.40
2009,09,01,02,01,13.40
2009,09,01,02,02,13.40
2009,09,01,02,03,13.30
2009,09,01,02,04,13.30
2009,09,01,02,05,13.30
2009,09,01,02,06,13.30
2009,09,01,02,07,13.30
2009,09,01,02,08,13.30
2009,09,01,02,09,13.30
2009,09,01,02,10,13.30
2009,09,01,02,11,13.30
2009,09,01,02,12,13.30
2009,09,01,02,13,13.30
2009,09,01,02,14,13.30
2009,09,01,02,15,13.30
2009,09,01,02,16,13.30
2009,09,01,02,17,13.30
2009,09,01,02,18,13.30
2009,09,01,02,19,13.30
2009,09,01,02,20,13.30
2009,09,01,02,21,13.30
2009,09,01,02,22,13.30
2009,09,01,02,23,13.30
2009,09,01,02,24,13.30
2009,09,01,02,25,13.30
2009,09,01,02,26,13.30
2009,09,01,02,27,13.30
2009,09,01,02,28,13.30
2009,09,01,02,29,13.30
2009,09,01,02,30,13.30
2009,09,01,02,31,13.30
2009,09,01,02,32,13.30
2009,09,01,02,33,13.30
2009,09,01,02,34,13.30
2009,09,01,02,35,13.30
2009,09,01,02,36,13.30
2009,09,01,02,37,13.30
2009,09,01,02,38,13.30
2009,09,01,02,39,13.20
2009,09,01,02,40,13.20
2009,09,01,02,41,13.20
2009,09,01,02,42,13.20
2009,09,01,02,43,13.20
2009,09,01,02,44,13.20
2009,09,01,02,45,13.20
2009,09,01,02,46,13.10
2009,09,01,02,47,13.10
2009,09,01,02,48,13.10
2009,09,01,02,49,13.10
2009,09,01,02,50,13.10
2009,09,01,02,51,13.00
2009,09,01,02,52,13.00
2009,09,01,02,53,13.00
2009,09,01,02,54,13.00
2009,09,01,02,55,13.00
2009,09,01,02,56,12.90
2009,09,01,02,57,12.90
2009,09,01,02,58,12.90
2009,09,01,02,59,12.90
2009,09,01,03,00,12.90
2009,09,01,03,01,12.90
2009,09,01,03,02,12.90
2009,09,01,03,03,12.80
2009,09,01,03,04,12.80
2009,09,01,03,05,12.80
2009,09,01,03,06,12.80
2009,09,01,03,07,12.80
2009,09,01,03,08,12.80
2009,09,01,03,09,12.80
2009,09,01,03,10,12.80
2009,09,01,03,11,12.80
2009,09,01,03,12,12.80
2009,09,01,03,13,12.80
2009,09,01,03,14,12.80
2009,09,01,03,15,12.80
2009,09,01,03,16,12.80
2009,09,01,03,17,12.80
2009,09,01,03,18,12.80
2009,09,01,03,19,12.80
2009,09,01,03,20,12.80
2009,09,01,03,21,12.80
2009,09,01,03,22,12.80
2009,09,01,03,23,12.70
2009,09,01,03,24,12.70
2009,09,01,03,25,12.70
2009,09,01,03,26,12.70
2009,09,01,03,27,12.70
2009,09,01,03,28,12.70
2009,09,01,03,29,12.70
2009,09,01,03,30,12.70
2009,09,01,03,31,12.70
2009,09,01,03,32,12.70
2009,09,01,03,33,12.70
2009,09,01,03,34,12.70
2009,09,01,03,35,12.70
2009,09,01,03,36,12.70
2009,09,01,03,37,12.70
2009,09,01,03,38,12.60
2009,09,01,03,39,12.60
2009,09,01,03,40,12.60
2009,09,01,03,41,12.60
2009,09,01,03,42,12.60
2009,09,01,03,43,12.60
2009,09,01,03,44,12.60
2009,09,01,03,45,12.60
2009,09,01,03,46,12.50
2009,09,01,03,47,12.50
2009,09,01,03,48,12.50
2009,09,01,03,49,12.50
2009,09,01,03,50,12.50
2009,09,01,03,51,12.50
2009,09,01,03,52,12.50
2009,09,01,03,53,12.40
2009,09,01,03,54,12.40
2009,09,01,03,55,12.40
2009,09,01,03,56,12.40
2009,09,01,03,57,12.40
2009,09,01,03,58,12.40
2009,09,01,03,59,12.40
2009,09,01,04,00,12.40
2009,09,01,04,01,12.40
2009,09,01,04,02,12.40
2009,09,01,04,03,12.40
2009,09,01,04,04,12.40
2009,09,01,04,05,12.40
2009,09,01,04,06,12.40
2009,09,01,04,07,12.40
2009,09,01,04,08,12.40
2009,09,01,04,09,12.40
2009,09,01,04,10,12.40
2009,09,01,04,11,12.40
2009,09,01,04,12,12.40
2009,09,01,04,13,12.40
2009,09,01,04,14,12.40
2009,09,01,04,15,12.40
2009,09,01,04,16,12.40
2009,09,01,04,17,12.40
2009,09,01,04,18,12.40
2009,09,01,04,19,12.40
2009,09,01,04,20,12.40
2009,09,01,04,21,12.40
2009,09,01,04,22,12.40
2009,09,01,04,23,12.40
2009,09,01,04,24,12.40
2009,09,01,04,25,12.40
2009,09,01,04,26,12.40
2009,09,01,04,27,12.40
2009,09,01,04,28,12.40
2009,09,01,04,29,12.40
2009,09,01,04,30,12.40
2009,09,01,04,31,12.40
2009,09,01,04,32,12.40
2009,09,01,04,33,12.40
2009,09,01,04,34,12.30
2009,09,01,04,35,12.30
2009,09,01,04,36,12.30
2009,09,01,04,37,12.30
2009,09,01,04,38,12.30
2009,09,01,04,39,12.30
2009,09,01,04,40,12.30
2009,09,01,04,41,12.30
2009,09,01,04,42,12.30
2009,09,01,04,43,12.30
2009,09,01,04,44,12.30
2009,09,01,04,45,12.30
2009,09,01,04,46,12.30
2009,09,01,04,47,12.30
2009,09,01,04,48,12.30
2009,09,01,04,49,12.30
2009,09,01,04,50,12.30
2009,09,01,04,51,12.30
2009,09,01,04,52,12.30
2009,09,01,04,53,12.30
2009,09,01,04,54,12.30
2009,09,01,04,55,12.30
2009,09,01,04,56,12.20
2009,09,01,04,57,12.20
2009,09,01,04,58,12.20
2009,09,01,04,59,12.20
2009,09,01,05,00,12.20
2009,09,01,05,01,12.20
2009,09,01,05,02,12.20
2009,09,01,05,03,12.20
2009,09,01,05,04,12.20
2009,09,01,05,05,12.20
2009,09,01,05,06,12.20
2009,09,01,05,07,12.20
2009,09,01,05,08,12.10
2009,09,01,05,09,12.10
2009,09,01,05,10,12.10
2009,09,01,05,11,12.10
2009,09,01,05,12,12.10
2009,09,01,05,13,12.10
2009,09,01,05,14,12.10
2009,09,01,05,15,12.10
2009,09,01,05,16,12.10
2009,09,01,05,17,12.10
2009,09,01,05,18,12.00
2009,09,01,05,19,12.00
2009,09,01,05,20,12.00
2009,09,01,05,21,12.00
2009,09,01,05,22,12.00
2009,09,01,05,23,12.00
2009,09,01,05,24,12.00
2009,09,01,05,25,12.00
2009,09,01,05,26,12.00
2009,09,01,05,27,12.00
2009,09,01,05,28,12.00
2009,09,01,05,29,12.00
2009,09,01,05,30,12.00
2009,09,01,05,31,12.00
2009,09,01,05,32,12.00
2009,09,01,05,33,12.00
2009,09,01,05,34,12.00
2009,09,01,05,35,12.00
2009,09,01,05,36,12.00
2009,09,01,05,37,12.00
2009,09,01,05,38,12.00
2009,09,01,05,39,12.00
2009,09,01,05,40,12.00
2009,09,01,05,41,12.00
2009,09,01,05,42,12.00
2009,09,01,05,43,12.00
2009,09,01,05,44,11.90
2009,09,01,05,45,11.90
2009,09,01,05,46,11.90
2009,09,01,05,47,11.90
2009,09,01,05,48,11.90
2009,09,01,05,49,11.90
2009,09,01,05,50,11.90
2009,09,01,05,51,11.90
2009,09,01,05,52,11.90
2009,09,01,05,53,11.90
2009,09,01,05,54,11.90
2009,09,01,05,55,11.90
2009,09,01,05,56,11.90
2009,09,01,05,57,11.90
2009,09,01,05,58,11.90
2009,09,01,05,59,11.90
2009,09,01,06,00,11.90
2009,09,01,06,01,11.90
2009,09,01,06,02,11.90
2009,09,01,06,03,11.80
2009,09,01,06,04,11.80
2009,09,01,06,05,11.80
2009,09,01,06,06,11.80
2009,09,01,06,07,11.80
2009,09,01,06,08,11.80
2009,09,01,06,09,11.80
2009,09,01,06,10,11.80
2009,09,01,06,11,11.80
2009,09,01,06,12,11.80
2009,09,01,06,13,11.80
2009,09,01,06,14,11.80
2009,09,01,06,15,11.80
2009,09,01,06,16,11.80
2009,09,01,06,17,11.80
2009,09,01,06,18,11.70
2009,09,01,06,19,11.70
2009,09,01,06,20,11.70
2009,09,01,06,21,11.70
2009,09,01,06,22,11.70
2009,09,01,06,23,11.70
2009,09,01,06,24,11.70
2009,09,01,06,25,11.70
2009,09,01,06,26,11.70
2009,09,01,06,27,11.70
2009,09,01,06,28,11.70
2009,09,01,06,29,11.70
2009,09,01,06,30,11.70
2009,09,01,06,31,11.70
2009,09,01,06,32,11.70
2009,09,01,06,33,11.60
2009,09,01,06,34,11.60
2009,09,01,06,35,11.60
2009,09,01,06,36,11.60
2009,09,01,06,37,11.60
2009,09,01,06,38,11.60
2009,09,01,06,39,11.60
2009,09,01,06,40,11.60
2009,09,01,06,41,11.60
2009,09,01,06,42,11.60
2009,09,01,06,43,11.60
2009,09,01,06,44,11.60
2009,09,01,06,45,11.60
2009,09,01,06,46,11.60
2009,09,01,06,47,11.60
2009,09,01,06,48,11.60
2009,09,01,06,49,11.60
2009,09,01,06,50,11.60
2009,09,01,06,51,11.60
2009,09,01,06,52,11.60
2009,09,01,06,53,11.60
2009,09,01,06,54,11.60
2009,09,01,06,55,11.70
2009,09,01,06,56,11.70
2009,09,01,06,57,11.70
2009,09,01,06,58,11.80
2009,09,01,06,59,11.80
2009,09,01,07,00,11.80
2009,09,01,07,01,11.80
2009,09,01,07,02,11.80
2009,09,01,07,03,11.80
2009,09,01,07,04,11.80
2009,09,01,07,05,11.90
2009,09,01,07,06,11.90
2009,09,01,07,07,11.90
2009,09,01,07,08,12.00
2009,09,01,07,09,12.00
2009,09,01,07,10,12.00
2009,09,01,07,11,12.10
2009,09,01,07,12,12.10
2009,09,01,07,13,12.20
2009,09,01,07,14,12.20
2009,09,01,07,15,12.20
2009,09,01,07,16,12.30
2009,09,01,07,17,12.30
2009,09,01,07,18,12.30
2009,09,01,07,19,12.40
2009,09,01,07,20,12.40
2009,09,01,07,21,12.50
2009,09,01,07,22,12.50
2009,09,01,07,23,12.60
2009,09,01,07,24,12.60
2009,09,01,07,25,12.70
2009,09,01,07,26,12.80
2009,09,01,07,27,12.80
2009,09,01,07,28,12.90
2009,09,01,07,29,13.00
2009,09,01,07,30,13.10
2009,09,01,07,31,13.20
2009,09,01,07,32,13.30
2009,09,01,07,33,13.40
2009,09,01,07,34,13.50
2009,09,01,07,35,13.60
2009,09,01,07,36,13.70
2009,09,01,07,37,13.70
2009,09,01,07,38,13.80
2009,09,01,07,39,13.90
2009,09,01,07,40,14.00
2009,09,01,07,41,14.00
2009,09,01,07,42,14.10
2009,09,01,07,43,14.20
2009,09,01,07,44,14.20
2009,09,01,07,45,14.20
2009,09,01,07,46,14.30
2009,09,01,07,47,14.40
2009,09,01,07,48,14.40
2009,09,01,07,49,14.50
2009,09,01,07,50,14.50
2009,09,01,07,51,14.50
2009,09,01,07,52,14.50
2009,09,01,07,53,14.50
2009,09,01,07,54,14.50
2009,09,01,07,55,14.50
2009,09,01,07,56,14.50
2009,09,01,07,57,14.50
2009,09,01,07,58,14.50
2009,09,01,07,59,14.50
2009,09,01,08,00,14.50
2009,09,01,08,01,14.60
2009,09,01,08,02,14.60
2009,09,01,08,03,14.60
2009,09,01,08,04,14.60
2009,09,01,08,05,14.60
2009,09,01,08,06,14.60
2009,09,01,08,07,14.60
2009,09,01,08,08,14.60
2009,09,01,08,09,14.60
2009,09,01,08,10,14.60
2009,09,01,08,11,14.60
2009,09,01,08,12,14.60
2009,09,01,08,13,14.50
2009,09,01,08,14,14.50
2009,09,01,08,15,14.50
2009,09,01,08,16,14.50
2009,09,01,08,17,14.50
2009,09,01,08,18,14.40
2009,09,01,08,19,14.40
2009,09,01,08,20,14.40
2009,09,01,08,21,14.40
2009,09,01,08,22,14.40
2009,09,01,08,23,14.40
2009,09,01,08,24,14.30
2009,09,01,08,25,14.20
2009,09,01,08,26,14.10
2009,09,01,08,27,14.10
2009,09,01,08,28,14.00
2009,09,01,08,29,14.00
2009,09,01,08,30,14.00
2009,09,01,08,31,13.90
2009,09,01,08,32,13.90
2009,09,01,08,33,13.80
2009,09,01,08,34,13.70
2009,09,01,08,35,13.70
2009,09,01,08,36,13.70
2009,09,01,08,37,13.70
2009,09,01,08,38,13.70
2009,09,01,08,39,13.70
2009,09,01,08,40,13.70
2009,09,01,08,41,13.70
2009,09,01,08,42,13.70
2009,09,01,08,43,13.70
2009,09,01,08,44,13.70
2009,09,01,08,45,13.80
2009,09,01,08,46,13.80
2009,09,01,08,47,13.90
2009,09,01,08,48,13.90
2009,09,01,08,49,14.00
2009,09,01,08,50,14.10
2009,09,01,08,51,14.10
2009,09,01,08,52,14.20
2009,09,01,08,53,14.20
2009,09,01,08,54,14.30
2009,09,01,08,55,14.40
2009,09,01,08,56,14.40
2009,09,01,08,57,14.50
2009,09,01,08,58,14.60
2009,09,01,08,59,14.60
2009,09,01,09,00,14.60
2009,09,01,09,01,14.70
2009,09,01,09,02,14.80
2009,09,01,09,03,14.80
2009,09,01,09,04,14.80
2009,09,01,09,05,14.90
2009,09,01,09,06,14.90
2009,09,01,09,07,14.90
2009,09,01,09,08,15.00
2009,09,01,09,09,15.00
2009,09,01,09,10,15.10
2009,09,01,09,11,15.20
2009,09,01,09,12,15.20
2009,09,01,09,13,15.30
2009,09,01,09,14,15.30
2009,09,01,09,15,15.30
2009,09,01,09,16,15.40
2009,09,01,09,17,15.50
2009,09,01,09,18,15.50
2009,09,01,09,19,15.60
2009,09,01,09,20,15.70
2009,09,01,09,21,15.70
2009,09,01,09,22,15.80
2009,09,01,09,23,15.80
2009,09,01,09,24,15.90
2009,09,01,09,25,15.90
2009,09,01,09,26,16.00
2009,09,01,09,27,16.10
2009,09,01,09,28,16.10
2009,09,01,09,29,16.10
2009,09,01,09,30,16.10
2009,09,01,09,31,16.10
2009,09,01,09,32,16.10
2009,09,01,09,33,16.10
2009,09,01,09,34,16.10
2009,09,01,09,35,16.10
2009,09,01,09,36,16.10
2009,09,01,09,37,16.20
2009,09,01,09,38,16.20
2009,09,01,09,39,16.20
2009,09,01,09,40,16.20
2009,09,01,09,41,16.30
2009,09,01,09,42,16.30
2009,09,01,09,43,16.40
2009,09,01,09,44,16.40
2009,09,01,09,45,16.50
2009,09,01,09,46,16.60
2009,09,01,09,47,16.60
2009,09,01,09,48,16.70
2009,09,01,09,49,16.70
2009,09,01,09,50,16.70
2009,09,01,09,51,16.70
2009,09,01,09,52,16.70
2009,09,01,09,53,16.70
2009,09,01,09,54,16.60
2009,09,01,09,55,16.40
2009,09,01,09,56,16.20
2009,09,01,09,57,16.10
2009,09,01,09,58,16.00
2009,09,01,09,59,15.80
2009,09,01,10,00,15.80
2009,09,01,10,01,15.70
2009,09,01,10,02,15.60
2009,09,01,10,03,15.50
2009,09,01,10,04,15.50
2009,09,01,10,05,15.50
2009,09,01,10,06,15.50
2009,09,01,10,07,15.50
2009,09,01,10,08,15.50
2009,09,01,10,09,15.50
2009,09,01,10,10,15.50
2009,09,01,10,11,15.50
2009,09,01,10,12,15.40
2009,09,01,10,13,15.40
2009,09,01,10,14,15.50
2009,09,01,10,15,15.50
2009,09,01,10,16,15.50
2009,09,01,10,17,15.50
2009,09,01,10,18,15.50
2009,09,01,10,19,15.60
2009,09,01,10,20,15.70
2009,09,01,10,21,15.70
2009,09,01,10,22,15.80
2009,09,01,10,23,15.80
2009,09,01,10,24,15.80
2009,09,01,10,25,15.90
2009,09,01,10,26,15.90
2009,09,01,10,27,16.10
2009,09,01,10,28,16.10
2009,09,01,10,29,16.20
2009,09,01,10,30,16.40
2009,09,01,10,31,16.50
2009,09,01,10,32,16.60
2009,09,01,10,33,16.70
2009,09,01,10,34,16.80
2009,09,01,10,35,16.90
2009,09,01,10,36,17.00
2009,09,01,10,37,17.10
2009,09,01,10,38,17.30
2009,09,01,10,39,17.30
2009,09,01,10,40,17.30
2009,09,01,10,41,17.30
2009,09,01,10,42,17.30
2009,09,01,10,43,17.30
2009,09,01,10,44,17.40
2009,09,01,10,45,17.40
2009,09,01,10,46,17.40
2009,09,01,10,47,17.40
2009,09,01,10,48,17.50
2009,09,01,10,49,17.50
2009,09,01,10,50,17.60
2009,09,01,10,51,17.60
2009,09,01,10,52,17.70
2009,09,01,10,53,17.70
2009,09,01,10,54,17.70
2009,09,01,10,55,17.70
2009,09,01,10,56,17.70
2009,09,01,10,57,17.80
2009,09,01,10,58,17.90
2009,09,01,10,59,17.90
2009,09,01,11,00,18.00
2009,09,01,11,01,18.10
2009,09,01,11,02,18.20
2009,09,01,11,03,18.20
2009,09,01,11,04,18.30
2009,09,01,11,05,18.30
2009,09,01,11,06,18.30
2009,09,01,11,07,18.40
2009,09,01,11,08,18.50
2009,09,01,11,09,18.70
2009,09,01,11,10,18.80
2009,09,01,11,11,18.90
2009,09,01,11,12,18.90
2009,09,01,11,13,18.90
2009,09,01,11,14,18.80
2009,09,01,11,15,18.80
2009,09,01,11,16,18.70
2009,09,01,11,17,18.70
2009,09,01,11,18,18.80
2009,09,01,11,19,18.70
2009,09,01,11,20,18.70
2009,09,01,11,21,18.60
2009,09,01,11,22,18.50
2009,09,01,11,23,18.40
2009,09,01,11,24,18.20
2009,09,01,11,25,18.20
2009,09,01,11,26,18.20
2009,09,01,11,27,18.20
2009,09,01,11,28,18.20
2009,09,01,11,29,18.20
2009,09,01,11,30,18.20
2009,09,01,11,31,18.10
2009,09,01,11,32,18.10
2009,09,01,11,33,17.90
2009,09,01,11,34,17.90
2009,09,01,11,35,17.80
2009,09,01,11,36,17.70
2009,09,01,11,37,17.60
2009,09,01,11,38,17.50
2009,09,01,11,39,17.50
2009,09,01,11,40,17.50
2009,09,01,11,41,17.50
2009,09,01,11,42,17.50
2009,09,01,11,43,17.60
2009,09,01,11,44,17.60
2009,09,01,11,45,17.70
2009,09,01,11,46,17.70
2009,09,01,11,47,17.80
2009,09,01,11,48,18.00
2009,09,01,11,49,18.10
2009,09,01,11,50,18.10
2009,09,01,11,51,18.00
2009,09,01,11,52,18.00
2009,09,01,11,53,18.10
2009,09,01,11,54,18.10
2009,09,01,11,55,17.90
2009,09,01,11,56,17.90
2009,09,01,11,57,17.90
2009,09,01,11,58,17.90
2009,09,01,11,59,18.00
2009,09,01,12,00,18.10
2009,09,01,12,01,18.20
2009,09,01,12,02,18.30
2009,09,01,12,03,18.30
2009,09,01,12,04,18.30
2009,09,01,12,05,18.30
2009,09,01,12,06,18.20
2009,09,01,12,07,18.10
2009,09,01,12,08,18.00
2009,09,01,12,09,17.80
2009,09,01,12,10,17.80
2009,09,01,12,11,17.80
2009,09,01,12,12,17.70
2009,09,01,12,13,17.70
2009,09,01,12,14,17.70
2009,09,01,12,15,17.60
2009,09,01,12,16,17.60
2009,09,01,12,17,17.60
2009,09,01,12,18,17.50
2009,09,01,12,19,17.40
2009,09,01,12,20,17.40
2009,09,01,12,21,17.40
2009,09,01,12,22,17.50
2009,09,01,12,23,17.60
2009,09,01,12,24,17.70
2009,09,01,12,25,17.70
2009,09,01,12,26,17.80
2009,09,01,12,27,17.80
2009,09,01,12,28,17.90
2009,09,01,12,29,17.90
2009,09,01,12,30,17.90
2009,09,01,12,31,18.10
2009,09,01,12,32,18.20
2009,09,01,12,33,18.40
2009,09,01,12,34,18.50
2009,09,01,12,35,18.60
2009,09,01,12,36,18.60
2009,09,01,12,37,18.70
2009,09,01,12,38,18.70
2009,09,01,12,39,18.70
2009,09,01,12,40,18.70
2009,09,01,12,41,18.60
2009,09,01,12,42,18.60
2009,09,01,12,43,18.70
2009,09,01,12,44,18.70
2009,09,01,12,45,18.80
2009,09,01,12,46,18.80
2009,09,01,12,47,18.90
2009,09,01,12,48,18.80
2009,09,01,12,49,18.70
2009,09,01,12,50,18.60
2009,09,01,12,51,18.60
2009,09,01,12,52,18.50
2009,09,01,12,53,18.50
2009,09,01,12,54,18.50
2009,09,01,12,55,18.50
2009,09,01,12,56,18.50
2009,09,01,12,57,18.40
2009,09,01,12,58,18.40
2009,09,01,12,59,18.50
2009,09,01,13,00,18.50
2009,09,01,13,01,18.50
2009,09,01,13,02,18.60
2009,09,01,13,03,18.60
2009,09,01,13,04,18.70
2009,09,01,13,05,18.90
2009,09,01,13,06,18.90
2009,09,01,13,07,19.10
2009,09,01,13,08,19.10
2009,09,01,13,09,19.10
2009,09,01,13,10,19.20
2009,09,01,13,11,19.20
2009,09,01,13,12,19.20
2009,09,01,13,13,19.00
2009,09,01,13,14,18.90
2009,09,01,13,15,18.80
2009,09,01,13,16,18.70
2009,09,01,13,17,18.60
2009,09,01,13,18,18.50
2009,09,01,13,19,18.40
2009,09,01,13,20,18.20
2009,09,01,13,21,18.00
2009,09,01,13,22,17.90
2009,09,01,13,23,17.70
2009,09,01,13,24,17.70
2009,09,01,13,25,17.60
2009,09,01,13,26,17.50
2009,09,01,13,27,17.50
2009,09,01,13,28,17.40
2009,09,01,13,29,17.40
2009,09,01,13,30,17.30
2009,09,01,13,31,17.40
2009,09,01,13,32,17.40
2009,09,01,13,33,17.30
2009,09,01,13,34,17.30
2009,09,01,13,35,17.30
2009,09,01,13,36,17.20
2009,09,01,13,37,17.20
2009,09,01,13,38,17.00
2009,09,01,13,39,16.90
2009,09,01,13,40,16.70
2009,09,01,13,41,16.50
2009,09,01,13,42,16.40
2009,09,01,13,43,16.30
2009,09,01,13,44,16.30
2009,09,01,13,45,16.30
2009,09,01,13,46,16.20
2009,09,01,13,47,16.10
2009,09,01,13,48,16.10
2009,09,01,13,49,16.10
2009,09,01,13,50,16.10
2009,09,01,13,51,15.90
2009,09,01,13,52,15.80
2009,09,01,13,53,15.80
2009,09,01,13,54,15.80
2009,09,01,13,55,15.80
2009,09,01,13,56,15.80
2009,09,01,13,57,15.80
2009,09,01,13,58,15.70
2009,09,01,13,59,15.60
2009,09,01,14,00,15.60
2009,09,01,14,01,15.60
2009,09,01,14,02,15.70
2009,09,01,14,03,15.80
2009,09,01,14,04,15.80
2009,09,01,14,05,15.80
2009,09,01,14,06,15.80
2009,09,01,14,07,15.70
2009,09,01,14,08,15.60
2009,09,01,14,09,15.50
2009,09,01,14,10,15.50
2009,09,01,14,11,15.50
2009,09,01,14,12,15.40
2009,09,01,14,13,15.40
2009,09,01,14,14,15.50
2009,09,01,14,15,15.50
2009,09,01,14,16,15.50
2009,09,01,14,17,15.60
2009,09,01,14,18,15.70
2009,09,01,14,19,15.80
2009,09,01,14,20,16.00
2009,09,01,14,21,16.10
2009,09,01,14,22,16.30
2009,09,01,14,23,16.40
2009,09,01,14,24,16.50
2009,09,01,14,25,16.70
2009,09,01,14,26,16.80
2009,09,01,14,27,16.90
2009,09,01,14,28,17.00
2009,09,01,14,29,17.10
2009,09,01,14,30,17.10
2009,09,01,14,31,17.20
2009,09,01,14,32,17.30
2009,09,01,14,33,17.40
2009,09,01,14,34,17.50
2009,09,01,14,35,17.70
2009,09,01,14,36,17.70
2009,09,01,14,37,17.80
2009,09,01,14,38,17.90
2009,09,01,14,39,18.10
2009,09,01,14,40,18.20
2009,09,01,14,41,18.30
2009,09,01,14,42,18.30
2009,09,01,14,43,18.40
2009,09,01,14,44,18.50
2009,09,01,14,45,18.60
2009,09,01,14,46,18.70
2009,09,01,14,47,18.70
2009,09,01,14,48,18.70
2009,09,01,14,49,18.70
2009,09,01,14,50,18.80
2009,09,01,14,51,18.90
2009,09,01,14,52,18.90
2009,09,01,14,53,18.90
2009,09,01,14,54,18.90
2009,09,01,14,55,18.90
2009,09,01,14,56,18.90
2009,09,01,14,57,18.90
2009,09,01,14,58,18.90
2009,09,01,14,59,18.80
2009,09,01,15,00,18.80
2009,09,01,15,01,18.80
2009,09,01,15,02,18.80
2009,09,01,15,03,18.80
2009,09,01,15,04,18.80
2009,09,01,15,05,18.70
2009,09,01,15,06,18.70
2009,09,01,15,07,18.60
2009,09,01,15,08,18.50
2009,09,01,15,09,18.40
2009,09,01,15,10,18.10
2009,09,01,15,11,17.90
2009,09,01,15,12,17.70
2009,09,01,15,13,17.50
2009,09,01,15,14,17.30
2009,09,01,15,15,17.10
2009,09,01,15,16,16.90
2009,09,01,15,17,16.80
2009,09,01,15,18,16.70
2009,09,01,15,19,16.50
2009,09,01,15,20,16.30
2009,09,01,15,21,16.20
2009,09,01,15,22,16.10
2009,09,01,15,23,16.00
2009,09,01,15,24,15.90
2009,09,01,15,25,15.90
2009,09,01,15,26,15.80
2009,09,01,15,27,15.80
2009,09,01,15,28,15.80
2009,09,01,15,29,15.80
2009,09,01,15,30,15.80
2009,09,01,15,31,15.70
2009,09,01,15,32,15.70
2009,09,01,15,33,15.60
2009,09,01,15,34,15.50
2009,09,01,15,35,15.50
2009,09,01,15,36,15.50
2009,09,01,15,37,15.50
2009,09,01,15,38,15.50
2009,09,01,15,39,15.60
2009,09,01,15,40,15.60
2009,09,01,15,41,15.70
2009,09,01,15,42,15.80
2009,09,01,15,43,15.80
2009,09,01,15,44,15.90
2009,09,01,15,45,16.00
2009,09,01,15,46,16.10
2009,09,01,15,47,16.20
2009,09,01,15,48,16.30
2009,09,01,15,49,16.40
2009,09,01,15,50,16.60
2009,09,01,15,51,16.70
2009,09,01,15,52,16.70
2009,09,01,15,53,16.80
2009,09,01,15,54,16.90
2009,09,01,15,55,17.10
2009,09,01,15,56,17.20
2009,09,01,15,57,17.30
2009,09,01,15,58,17.30
2009,09,01,15,59,17.40
2009,09,01,16,00,17.50
2009,09,01,16,01,17.60
2009,09,01,16,02,17.70
2009,09,01,16,03,17.80
2009,09,01,16,04,18.00
2009,09,01,16,05,18.20
2009,09,01,16,06,18.40
2009,09,01,16,07,18.60
2009,09,01,16,08,18.80
2009,09,01,16,09,18.90
2009,09,01,16,10,19.10
2009,09,01,16,11,19.10
2009,09,01,16,12,19.20
2009,09,01,16,13,19.30
2009,09,01,16,14,19.50
2009,09,01,16,15,19.60
2009,09,01,16,16,19.80
2009,09,01,16,17,20.00
2009,09,01,16,18,20.10
2009,09,01,16,19,20.20
2009,09,01,16,20,20.20
2009,09,01,16,21,20.10
2009,09,01,16,22,19.90
2009,09,01,16,23,19.50
2009,09,01,16,24,19.30
2009,09,01,16,25,19.10
2009,09,01,16,26,19.10
2009,09,01,16,27,19.10
2009,09,01,16,28,19.10
2009,09,01,16,29,19.10
2009,09,01,16,30,19.10
2009,09,01,16,31,19.20
2009,09,01,16,32,19.20
2009,09,01,16,33,19.10
2009,09,01,16,34,19.20
2009,09,01,16,35,19.10
2009,09,01,16,36,19.10
2009,09,01,16,37,18.90
2009,09,01,16,38,18.70
2009,09,01,16,39,18.50
2009,09,01,16,40,18.30
2009,09,01,16,41,18.10
2009,09,01,16,42,17.90
2009,09,01,16,43,17.80
2009,09,01,16,44,17.70
2009,09,01,16,45,17.60
2009,09,01,16,46,17.50
2009,09,01,16,47,17.50
2009,09,01,16,48,17.60
2009,09,01,16,49,17.60
2009,09,01,16,50,17.50
2009,09,01,16,51,17.50
2009,09,01,16,52,17.50
2009,09,01,16,53,17.50
2009,09,01,16,54,17.50
2009,09,01,16,55,17.60
2009,09,01,16,56,17.70
2009,09,01,16,57,17.70
2009,09,01,16,58,17.80
2009,09,01,16,59,17.90
2009,09,01,17,00,18.00
2009,09,01,17,01,18.10
2009,09,01,17,02,18.20
2009,09,01,17,03,18.30
2009,09,01,17,04,18.50
2009,09,01,17,05,18.50
2009,09,01,17,06,18.60
2009,09,01,17,07,18.70
2009,09,01,17,08,18.80
2009,09,01,17,09,18.90
2009,09,01,17,10,19.00
2009,09,01,17,11,19.10
2009,09,01,17,12,19.20
2009,09,01,17,13,19.30
2009,09,01,17,14,19.40
2009,09,01,17,15,19.50
2009,09,01,17,16,19.60
2009,09,01,17,17,19.70
2009,09,01,17,18,19.80
2009,09,01,17,19,19.90